Year,Month,Day,Hour,Minute,Value (Times are PST for temperature in C)
2010,06,29,00,00,14.40
2010,06,29,00,01,14.40
2010,06,29,00,02,14.40
2010,06,29,00,03,14.40
2010,06,29,00,04,14.40
2010,06,29,00,05,14.30
2010,06,29,00,06,14.30
2010,06,29,00,07,14.30
2010,06,29,00,08,14.30
2010,06,29,00,09,14.30
2010,06,29,00,10,14.30
2010,06,29,00,11,14.20
2010,06,29,00,12,14.20
2010,06,29,00,13,14.20
2010,06,29,00,14,14.20
2010,06,29,00,15,14.20
2010,06,29,00,16,14.20
2010,06,29,00,17,14.10
2010,06,29,00,18,14.10
2010,06,29,00,19,14.10
2010,06,29,00,20,14.10
2010,06,29,00,21,14.10
2010,06,29,00,22,14.00
2010,06,29,00,23,14.00
2010,06,29,00,24,14.00
2010,06,29,00,25,13.90
2010,06,29,00,26,13.90
2010,06,29,00,27,13.90
2010,06,29,00,28,13.90
2010,06,29,00,29,13.90
2010,06,29,00,30,13.90
2010,06,29,00,31,13.80
2010,06,29,00,32,13.80
2010,06,29,00,33,13.80
2010,06,29,00,34,13.80
2010,06,29,00,35,13.70
2010,06,29,00,36,13.70
2010,06,29,00,37,13.70
2010,06,29,00,38,13.70
2010,06,29,00,39,13.70
2010,06,29,00,40,13.60
2010,06,29,00,41,13.60
2010,06,29,00,42,13.50
2010,06,29,00,43,13.50
2010,06,29,00,44,13.40
2010,06,29,00,45,13.40
2010,06,29,00,46,13.40
2010,06,29,00,47,13.40
2010,06,29,00,48,13.30
2010,06,29,00,49,13.30
2010,06,29,00,50,13.30
2010,06,29,00,51,13.30
2010,06,29,00,52,13.30
2010,06,29,00,53,13.30
2010,06,29,00,54,13.20
2010,06,29,00,55,13.20
2010,06,29,00,56,13.20
2010,06,29,00,57,13.20
2010,06,29,00,58,13.20
2010,06,29,00,59,13.10
2010,06,29,01,00,13.10
2010,06,29,01,01,13.10
2010,06,29,01,02,13.10
2010,06,29,01,03,13.10
2010,06,29,01,04,13.10
2010,06,29,01,05,13.10
2010,06,29,01,06,13.10
2010,06,29,01,07,13.10
2010,06,29,01,08,13.10
2010,06,29,01,09,13.10
2010,06,29,01,10,13.10
2010,06,29,01,11,13.10
2010,06,29,01,12,13.10
2010,06,29,01,13,13.00
2010,06,29,01,14,13.00
2010,06,29,01,15,13.00
2010,06,29,01,16,13.00
2010,06,29,01,17,12.90
2010,06,29,01,18,12.90
2010,06,29,01,19,12.90
2010,06,29,01,20,12.90
2010,06,29,01,21,12.90
2010,06,29,01,22,12.90
2010,06,29,01,23,12.90
2010,06,29,01,24,12.80
2010,06,29,01,25,12.80
2010,06,29,01,26,12.80
2010,06,29,01,27,12.90
2010,06,29,01,28,12.90
2010,06,29,01,29,12.90
2010,06,29,01,30,12.90
2010,06,29,01,31,12.90
2010,06,29,01,32,12.90
2010,06,29,01,33,12.80
2010,06,29,01,34,12.80
2010,06,29,01,35,12.80
2010,06,29,01,36,12.80
2010,06,29,01,37,12.80
2010,06,29,01,38,12.80
2010,06,29,01,39,12.80
2010,06,29,01,40,12.70
2010,06,29,01,41,12.70
2010,06,29,01,42,12.70
2010,06,29,01,43,12.70
2010,06,29,01,44,12.70
2010,06,29,01,45,12.70
2010,06,29,01,46,12.70
2010,06,29,01,47,12.70
2010,06,29,01,48,12.60
2010,06,29,01,49,12.60
2010,06,29,01,50,12.50
2010,06,29,01,51,12.50
2010,06,29,01,52,12.50
2010,06,29,01,53,12.40
2010,06,29,01,54,12.40
2010,06,29,01,55,12.40
2010,06,29,01,56,12.40
2010,06,29,01,57,12.30
2010,06,29,01,58,12.30
2010,06,29,01,59,12.30
2010,06,29,02,00,12.30
2010,06,29,02,01,12.30
2010,06,29,02,02,12.40
2010,06,29,02,03,12.40
2010,06,29,02,04,12.50
2010,06,29,02,05,12.50
2010,06,29,02,06,12.50
2010,06,29,02,07,12.60
2010,06,29,02,08,12.60
2010,06,29,02,09,12.60
2010,06,29,02,10,12.70
2010,06,29,02,11,12.70
2010,06,29,02,12,12.70
2010,06,29,02,13,12.70
2010,06,29,02,14,12.70
2010,06,29,02,15,12.70
2010,06,29,02,16,12.70
2010,06,29,02,17,12.70
2010,06,29,02,18,12.70
2010,06,29,02,19,12.70
2010,06,29,02,20,12.70
2010,06,29,02,21,12.80
2010,06,29,02,22,12.80
2010,06,29,02,23,12.80
2010,06,29,02,24,12.80
2010,06,29,02,25,12.80
2010,06,29,02,26,12.80
2010,06,29,02,27,12.80
2010,06,29,02,28,12.80
2010,06,29,02,29,12.70
2010,06,29,02,30,12.70
2010,06,29,02,31,12.70
2010,06,29,02,32,12.60
2010,06,29,02,33,12.60
2010,06,29,02,34,12.50
2010,06,29,02,35,12.50
2010,06,29,02,36,12.50
2010,06,29,02,37,12.40
2010,06,29,02,38,12.40
2010,06,29,02,39,12.40
2010,06,29,02,40,12.40
2010,06,29,02,41,12.40
2010,06,29,02,42,12.30
2010,06,29,02,43,12.30
2010,06,29,02,44,12.30
2010,06,29,02,45,12.30
2010,06,29,02,46,12.20
2010,06,29,02,47,12.20
2010,06,29,02,48,12.10
2010,06,29,02,49,12.10
2010,06,29,02,50,12.00
2010,06,29,02,51,12.00
2010,06,29,02,52,11.90
2010,06,29,02,53,11.90
2010,06,29,02,54,11.80
2010,06,29,02,55,11.80
2010,06,29,02,56,11.80
2010,06,29,02,57,11.80
2010,06,29,02,58,11.80
2010,06,29,02,59,11.70
2010,06,29,03,00,11.70
2010,06,29,03,01,11.60
2010,06,29,03,02,11.60
2010,06,29,03,03,11.50
2010,06,29,03,04,11.50
2010,06,29,03,05,11.40
2010,06,29,03,06,11.30
2010,06,29,03,07,11.30
2010,06,29,03,08,11.20
2010,06,29,03,09,11.20
2010,06,29,03,10,11.20
2010,06,29,03,11,11.20
2010,06,29,03,12,11.30
2010,06,29,03,13,11.30
2010,06,29,03,14,11.30
2010,06,29,03,15,11.30
2010,06,29,03,16,11.30
2010,06,29,03,17,11.30
2010,06,29,03,18,11.20
2010,06,29,03,19,11.20
2010,06,29,03,20,11.20
2010,06,29,03,21,11.10
2010,06,29,03,22,11.10
2010,06,29,03,23,11.00
2010,06,29,03,24,10.90
2010,06,29,03,25,10.90
2010,06,29,03,26,10.80
2010,06,29,03,27,10.80
2010,06,29,03,28,10.80
2010,06,29,03,29,10.70
2010,06,29,03,30,10.70
2010,06,29,03,31,10.60
2010,06,29,03,32,10.60
2010,06,29,03,33,10.50
2010,06,29,03,34,10.40
2010,06,29,03,35,10.30
2010,06,29,03,36,10.30
2010,06,29,03,37,10.30
2010,06,29,03,38,10.20
2010,06,29,03,39,10.10
2010,06,29,03,40,10.10
2010,06,29,03,41,10.00
2010,06,29,03,42,10.00
2010,06,29,03,43,9.90
2010,06,29,03,44,9.90
2010,06,29,03,45,9.80
2010,06,29,03,46,9.80
2010,06,29,03,47,9.70
2010,06,29,03,48,9.70
2010,06,29,03,49,9.60
2010,06,29,03,50,9.60
2010,06,29,03,51,9.50
2010,06,29,03,52,9.50
2010,06,29,03,53,9.50
2010,06,29,03,54,9.40
2010,06,29,03,55,9.40
2010,06,29,03,56,9.40
2010,06,29,03,57,9.40
2010,06,29,03,58,9.40
2010,06,29,03,59,9.30
2010,06,29,04,00,9.30
2010,06,29,04,01,9.30
2010,06,29,04,02,9.30
2010,06,29,04,03,9.20
2010,06,29,04,04,9.20
2010,06,29,04,05,9.20
2010,06,29,04,06,9.20
2010,06,29,04,07,9.20
2010,06,29,04,08,9.10
2010,06,29,04,09,9.10
2010,06,29,04,10,9.10
2010,06,29,04,11,9.10
2010,06,29,04,12,9.10
2010,06,29,04,13,9.10
2010,06,29,04,14,9.10
2010,06,29,04,15,9.10
2010,06,29,04,16,9.00
2010,06,29,04,17,9.00
2010,06,29,04,18,8.90
2010,06,29,04,19,8.90
2010,06,29,04,20,8.90
2010,06,29,04,21,8.80
2010,06,29,04,22,8.80
2010,06,29,04,23,8.80
2010,06,29,04,24,8.80
2010,06,29,04,25,8.80
2010,06,29,04,26,8.80
2010,06,29,04,27,8.80
2010,06,29,04,28,8.80
2010,06,29,04,29,8.80
2010,06,29,04,30,8.80
2010,06,29,04,31,8.80
2010,06,29,04,32,8.70
2010,06,29,04,33,8.70
2010,06,29,04,34,8.70
2010,06,29,04,35,8.70
2010,06,29,04,36,8.70
2010,06,29,04,37,8.70
2010,06,29,04,38,8.70
2010,06,29,04,39,8.70
2010,06,29,04,40,8.60
2010,06,29,04,41,8.60
2010,06,29,04,42,8.60
2010,06,29,04,43,8.50
2010,06,29,04,44,8.50
2010,06,29,04,45,8.50
2010,06,29,04,46,8.40
2010,06,29,04,47,8.40
2010,06,29,04,48,8.40
2010,06,29,04,49,8.40
2010,06,29,04,50,8.30
2010,06,29,04,51,8.30
2010,06,29,04,52,8.30
2010,06,29,04,53,8.30
2010,06,29,04,54,8.30
2010,06,29,04,55,8.30
2010,06,29,04,56,8.30
2010,06,29,04,57,8.30
2010,06,29,04,58,8.20
2010,06,29,04,59,8.20
2010,06,29,05,00,8.20
2010,06,29,05,01,8.20
2010,06,29,05,02,8.20
2010,06,29,05,03,8.20
2010,06,29,05,04,8.20
2010,06,29,05,05,8.20
2010,06,29,05,06,8.10
2010,06,29,05,07,8.10
2010,06,29,05,08,8.10
2010,06,29,05,09,8.10
2010,06,29,05,10,8.20
2010,06,29,05,11,8.20
2010,06,29,05,12,8.20
2010,06,29,05,13,8.20
2010,06,29,05,14,8.20
2010,06,29,05,15,8.20
2010,06,29,05,16,8.20
2010,06,29,05,17,8.20
2010,06,29,05,18,8.20
2010,06,29,05,19,8.20
2010,06,29,05,20,8.10
2010,06,29,05,21,8.10
2010,06,29,05,22,8.10
2010,06,29,05,23,8.10
2010,06,29,05,24,8.10
2010,06,29,05,25,8.10
2010,06,29,05,26,8.10
2010,06,29,05,27,8.10
2010,06,29,05,28,8.10
2010,06,29,05,29,8.10
2010,06,29,05,30,8.10
2010,06,29,05,31,8.00
2010,06,29,05,32,8.00
2010,06,29,05,33,8.00
2010,06,29,05,34,7.90
2010,06,29,05,35,7.90
2010,06,29,05,36,7.90
2010,06,29,05,37,7.90
2010,06,29,05,38,7.90
2010,06,29,05,39,7.80
2010,06,29,05,40,7.80
2010,06,29,05,41,7.80
2010,06,29,05,42,7.80
2010,06,29,05,43,7.80
2010,06,29,05,44,7.80
2010,06,29,05,45,7.70
2010,06,29,05,46,7.70
2010,06,29,05,47,7.70
2010,06,29,05,48,7.70
2010,06,29,05,49,7.70
2010,06,29,05,50,7.70
2010,06,29,05,51,7.70
2010,06,29,05,52,7.70
2010,06,29,05,53,7.70
2010,06,29,05,54,7.70
2010,06,29,05,55,7.70
2010,06,29,05,56,7.70
2010,06,29,05,57,7.70
2010,06,29,05,58,7.80
2010,06,29,05,59,7.80
2010,06,29,06,00,7.80
2010,06,29,06,01,7.80
2010,06,29,06,02,7.80
2010,06,29,06,03,7.80
2010,06,29,06,04,7.90
2010,06,29,06,05,7.90
2010,06,29,06,06,7.90
2010,06,29,06,07,7.90
2010,06,29,06,08,7.90
2010,06,29,06,09,7.90
2010,06,29,06,10,7.90
2010,06,29,06,11,7.90
2010,06,29,06,12,8.00
2010,06,29,06,13,8.10
2010,06,29,06,14,8.10
2010,06,29,06,15,8.10
2010,06,29,06,16,8.10
2010,06,29,06,17,8.10
2010,06,29,06,18,8.10
2010,06,29,06,19,8.10
2010,06,29,06,20,8.10
2010,06,29,06,21,8.10
2010,06,29,06,22,8.10
2010,06,29,06,23,8.10
2010,06,29,06,24,8.10
2010,06,29,06,25,8.10
2010,06,29,06,26,8.10
2010,06,29,06,27,8.10
2010,06,29,06,28,8.20
2010,06,29,06,29,8.20
2010,06,29,06,30,8.30
2010,06,29,06,31,8.30
2010,06,29,06,32,8.30
2010,06,29,06,33,8.30
2010,06,29,06,34,8.30
2010,06,29,06,35,8.30
2010,06,29,06,36,8.40
2010,06,29,06,37,8.40
2010,06,29,06,38,8.40
2010,06,29,06,39,8.40
2010,06,29,06,40,8.40
2010,06,29,06,41,8.50
2010,06,29,06,42,8.50
2010,06,29,06,43,8.50
2010,06,29,06,44,8.60
2010,06,29,06,45,8.60
2010,06,29,06,46,8.60
2010,06,29,06,47,8.70
2010,06,29,06,48,8.70
2010,06,29,06,49,8.80
2010,06,29,06,50,8.90
2010,06,29,06,51,9.00
2010,06,29,06,52,9.10
2010,06,29,06,53,9.20
2010,06,29,06,54,9.20
2010,06,29,06,55,9.40
2010,06,29,06,56,9.50
2010,06,29,06,57,9.50
2010,06,29,06,58,9.60
2010,06,29,06,59,9.60
2010,06,29,07,00,9.60
2010,06,29,07,01,9.60
2010,06,29,07,02,9.70
2010,06,29,07,03,9.70
2010,06,29,07,04,9.70
2010,06,29,07,05,9.70
2010,06,29,07,06,9.70
2010,06,29,07,07,9.70
2010,06,29,07,08,9.70
2010,06,29,07,09,9.60
2010,06,29,07,10,9.60
2010,06,29,07,11,9.60
2010,06,29,07,12,9.60
2010,06,29,07,13,9.50
2010,06,29,07,14,9.50
2010,06,29,07,15,9.50
2010,06,29,07,16,9.50
2010,06,29,07,17,9.50
2010,06,29,07,18,9.50
2010,06,29,07,19,9.50
2010,06,29,07,20,9.50
2010,06,29,07,21,9.60
2010,06,29,07,22,9.60
2010,06,29,07,23,9.60
2010,06,29,07,24,9.60
2010,06,29,07,25,9.60
2010,06,29,07,26,9.50
2010,06,29,07,27,9.50
2010,06,29,07,28,9.50
2010,06,29,07,29,9.50
2010,06,29,07,30,9.50
2010,06,29,07,31,9.60
2010,06,29,07,32,9.60
2010,06,29,07,33,9.60
2010,06,29,07,34,9.60
2010,06,29,07,35,9.70
2010,06,29,07,36,9.80
2010,06,29,07,37,9.90
2010,06,29,07,38,10.00
2010,06,29,07,39,10.10
2010,06,29,07,40,10.20
2010,06,29,07,41,10.30
2010,06,29,07,42,10.40
2010,06,29,07,43,10.60
2010,06,29,07,44,10.70
2010,06,29,07,45,10.70
2010,06,29,07,46,10.80
2010,06,29,07,47,10.90
2010,06,29,07,48,11.00
2010,06,29,07,49,11.10
2010,06,29,07,50,11.20
2010,06,29,07,51,11.30
2010,06,29,07,52,11.40
2010,06,29,07,53,11.50
2010,06,29,07,54,11.60
2010,06,29,07,55,11.60
2010,06,29,07,56,11.60
2010,06,29,07,57,11.70
2010,06,29,07,58,11.70
2010,06,29,07,59,11.80
2010,06,29,08,00,11.80
2010,06,29,08,01,11.90
2010,06,29,08,02,12.00
2010,06,29,08,03,12.00
2010,06,29,08,04,12.10
2010,06,29,08,05,12.10
2010,06,29,08,06,12.10
2010,06,29,08,07,12.20
2010,06,29,08,08,12.20
2010,06,29,08,09,12.20
2010,06,29,08,10,12.20
2010,06,29,08,11,12.20
2010,06,29,08,12,12.30
2010,06,29,08,13,12.30
2010,06,29,08,14,12.30
2010,06,29,08,15,12.30
2010,06,29,08,16,12.30
2010,06,29,08,17,12.30
2010,06,29,08,18,12.30
2010,06,29,08,19,12.30
2010,06,29,08,20,12.40
2010,06,29,08,21,12.40
2010,06,29,08,22,12.40
2010,06,29,08,23,12.50
2010,06,29,08,24,12.60
2010,06,29,08,25,12.60
2010,06,29,08,26,12.70
2010,06,29,08,27,12.80
2010,06,29,08,28,12.80
2010,06,29,08,29,12.80
2010,06,29,08,30,12.90
2010,06,29,08,31,12.90
2010,06,29,08,32,13.00
2010,06,29,08,33,13.00
2010,06,29,08,34,13.10
2010,06,29,08,35,13.20
2010,06,29,08,36,13.20
2010,06,29,08,37,13.30
2010,06,29,08,38,13.30
2010,06,29,08,39,13.40
2010,06,29,08,40,13.40
2010,06,29,08,41,13.40
2010,06,29,08,42,13.40
2010,06,29,08,43,13.40
2010,06,29,08,44,13.50
2010,06,29,08,45,13.50
2010,06,29,08,46,13.50
2010,06,29,08,47,13.60
2010,06,29,08,48,13.60
2010,06,29,08,49,13.60
2010,06,29,08,50,13.60
2010,06,29,08,51,13.70
2010,06,29,08,52,13.70
2010,06,29,08,53,13.70
2010,06,29,08,54,13.70
2010,06,29,08,55,13.80
2010,06,29,08,56,13.80
2010,06,29,08,57,13.80
2010,06,29,08,58,13.90
2010,06,29,08,59,13.90
2010,06,29,09,00,13.90
2010,06,29,09,01,13.90
2010,06,29,09,02,13.90
2010,06,29,09,03,14.00
2010,06,29,09,04,14.00
2010,06,29,09,05,14.00
2010,06,29,09,06,14.10
2010,06,29,09,07,14.10
2010,06,29,09,08,14.20
2010,06,29,09,09,14.30
2010,06,29,09,10,14.30
2010,06,29,09,11,14.40
2010,06,29,09,12,14.40
2010,06,29,09,13,14.50
2010,06,29,09,14,14.50
2010,06,29,09,15,14.60
2010,06,29,09,16,14.60
2010,06,29,09,17,14.60
2010,06,29,09,18,14.70
2010,06,29,09,19,14.70
2010,06,29,09,20,14.70
2010,06,29,09,21,14.80
2010,06,29,09,22,14.90
2010,06,29,09,23,14.90
2010,06,29,09,24,14.90
2010,06,29,09,25,14.90
2010,06,29,09,26,14.90
2010,06,29,09,27,15.00
2010,06,29,09,28,15.00
2010,06,29,09,29,15.00
2010,06,29,09,30,15.00
2010,06,29,09,31,15.00
2010,06,29,09,32,15.00
2010,06,29,09,33,15.00
2010,06,29,09,34,15.00
2010,06,29,09,35,15.00
2010,06,29,09,36,15.00
2010,06,29,09,37,15.00
2010,06,29,09,38,15.00
2010,06,29,09,39,15.00
2010,06,29,09,40,15.00
2010,06,29,09,41,15.00
2010,06,29,09,42,14.90
2010,06,29,09,43,14.90
2010,06,29,09,44,14.90
2010,06,29,09,45,14.80
2010,06,29,09,46,14.80
2010,06,29,09,47,14.90
2010,06,29,09,48,15.00
2010,06,29,09,49,15.00
2010,06,29,09,50,15.00
2010,06,29,09,51,15.00
2010,06,29,09,52,15.00
2010,06,29,09,53,15.00
2010,06,29,09,54,15.00
2010,06,29,09,55,15.10
2010,06,29,09,56,15.10
2010,06,29,09,57,15.20
2010,06,29,09,58,15.20
2010,06,29,09,59,15.30
2010,06,29,10,00,15.20
2010,06,29,10,01,15.20
2010,06,29,10,02,15.30
2010,06,29,10,03,15.30
2010,06,29,10,04,15.30
2010,06,29,10,05,15.30
2010,06,29,10,06,15.30
2010,06,29,10,07,15.30
2010,06,29,10,08,15.30
2010,06,29,10,09,15.30
2010,06,29,10,10,15.30
2010,06,29,10,11,15.30
2010,06,29,10,12,15.40
2010,06,29,10,13,15.40
2010,06,29,10,14,15.40
2010,06,29,10,15,15.50
2010,06,29,10,16,15.50
2010,06,29,10,17,15.50
2010,06,29,10,18,15.60
2010,06,29,10,19,15.60
2010,06,29,10,20,15.60
2010,06,29,10,21,15.70
2010,06,29,10,22,15.70
2010,06,29,10,23,15.80
2010,06,29,10,24,15.70
2010,06,29,10,25,15.70
2010,06,29,10,26,15.70
2010,06,29,10,27,15.70
2010,06,29,10,28,15.70
2010,06,29,10,29,15.70
2010,06,29,10,30,15.80
2010,06,29,10,31,15.90
2010,06,29,10,32,16.00
2010,06,29,10,33,16.10
2010,06,29,10,34,16.20
2010,06,29,10,35,16.30
2010,06,29,10,36,16.40
2010,06,29,10,37,16.50
2010,06,29,10,38,16.60
2010,06,29,10,39,16.70
2010,06,29,10,40,16.70
2010,06,29,10,41,16.70
2010,06,29,10,42,16.80
2010,06,29,10,43,16.80
2010,06,29,10,44,16.80
2010,06,29,10,45,16.70
2010,06,29,10,46,16.70
2010,06,29,10,47,16.70
2010,06,29,10,48,16.70
2010,06,29,10,49,16.60
2010,06,29,10,50,16.60
2010,06,29,10,51,16.60
2010,06,29,10,52,16.50
2010,06,29,10,53,16.50
2010,06,29,10,54,16.50
2010,06,29,10,55,16.50
2010,06,29,10,56,16.50
2010,06,29,10,57,16.50
2010,06,29,10,58,16.60
2010,06,29,10,59,16.70
2010,06,29,11,00,16.70
2010,06,29,11,01,16.80
2010,06,29,11,02,16.80
2010,06,29,11,03,16.90
2010,06,29,11,04,16.90
2010,06,29,11,05,16.90
2010,06,29,11,06,16.80
2010,06,29,11,07,16.80
2010,06,29,11,08,16.90
2010,06,29,11,09,17.00
2010,06,29,11,10,17.10
2010,06,29,11,11,17.10
2010,06,29,11,12,17.20
2010,06,29,11,13,17.20
2010,06,29,11,14,17.20
2010,06,29,11,15,17.10
2010,06,29,11,16,16.90
2010,06,29,11,17,16.70
2010,06,29,11,18,16.60
2010,06,29,11,19,16.60
2010,06,29,11,20,16.60
2010,06,29,11,21,16.60
2010,06,29,11,22,16.70
2010,06,29,11,23,16.70
2010,06,29,11,24,16.80
2010,06,29,11,25,16.80
2010,06,29,11,26,16.80
2010,06,29,11,27,16.70
2010,06,29,11,28,16.80
2010,06,29,11,29,16.80
2010,06,29,11,30,16.90
2010,06,29,11,31,17.00
2010,06,29,11,32,17.10
2010,06,29,11,33,17.20
2010,06,29,11,34,17.30
2010,06,29,11,35,17.30
2010,06,29,11,36,17.40
2010,06,29,11,37,17.40
2010,06,29,11,38,17.30
2010,06,29,11,39,17.20
2010,06,29,11,40,17.10
2010,06,29,11,41,17.10
2010,06,29,11,42,17.00
2010,06,29,11,43,16.80
2010,06,29,11,44,16.70
2010,06,29,11,45,16.60
2010,06,29,11,46,16.60
2010,06,29,11,47,16.60
2010,06,29,11,48,16.70
2010,06,29,11,49,16.80
2010,06,29,11,50,16.90
2010,06,29,11,51,16.90
2010,06,29,11,52,16.90
2010,06,29,11,53,17.00
2010,06,29,11,54,17.10
2010,06,29,11,55,17.10
2010,06,29,11,56,17.10
2010,06,29,11,57,17.00
2010,06,29,11,58,16.80
2010,06,29,11,59,16.80
2010,06,29,12,00,16.80
2010,06,29,12,01,16.70
2010,06,29,12,02,16.70
2010,06,29,12,03,16.60
2010,06,29,12,04,16.50
2010,06,29,12,05,16.40
2010,06,29,12,06,16.40
2010,06,29,12,07,16.40
2010,06,29,12,08,16.50
2010,06,29,12,09,16.60
2010,06,29,12,10,16.60
2010,06,29,12,11,16.70
2010,06,29,12,12,16.80
2010,06,29,12,13,16.90
2010,06,29,12,14,17.00
2010,06,29,12,15,17.20
2010,06,29,12,16,17.30
2010,06,29,12,17,17.40
2010,06,29,12,18,17.40
2010,06,29,12,19,17.40
2010,06,29,12,20,17.40
2010,06,29,12,21,17.40
2010,06,29,12,22,17.30
2010,06,29,12,23,17.30
2010,06,29,12,24,17.30
2010,06,29,12,25,17.20
2010,06,29,12,26,17.20
2010,06,29,12,27,17.20
2010,06,29,12,28,17.20
2010,06,29,12,29,17.30
2010,06,29,12,30,17.30
2010,06,29,12,31,17.40
2010,06,29,12,32,17.50
2010,06,29,12,33,17.50
2010,06,29,12,34,17.60
2010,06,29,12,35,17.70
2010,06,29,12,36,17.80
2010,06,29,12,37,17.90
2010,06,29,12,38,18.10
2010,06,29,12,39,18.30
2010,06,29,12,40,18.40
2010,06,29,12,41,18.60
2010,06,29,12,42,18.60
2010,06,29,12,43,18.60
2010,06,29,12,44,18.40
2010,06,29,12,45,18.20
2010,06,29,12,46,18.10
2010,06,29,12,47,18.00
2010,06,29,12,48,18.00
2010,06,29,12,49,17.90
2010,06,29,12,50,17.80
2010,06,29,12,51,17.70
2010,06,29,12,52,17.80
2010,06,29,12,53,17.80
2010,06,29,12,54,17.90
2010,06,29,12,55,18.00
2010,06,29,12,56,18.10
2010,06,29,12,57,18.10
2010,06,29,12,58,18.10
2010,06,29,12,59,18.10
2010,06,29,13,00,18.20
2010,06,29,13,01,18.20
2010,06,29,13,02,18.20
2010,06,29,13,03,18.20
2010,06,29,13,04,18.30
2010,06,29,13,05,18.20
2010,06,29,13,06,18.00
2010,06,29,13,07,17.80
2010,06,29,13,08,17.60
2010,06,29,13,09,17.50
2010,06,29,13,10,17.40
2010,06,29,13,11,17.40
2010,06,29,13,12,17.50
2010,06,29,13,13,17.50
2010,06,29,13,14,17.60
2010,06,29,13,15,17.50
2010,06,29,13,16,17.40
2010,06,29,13,17,17.30
2010,06,29,13,18,17.20
2010,06,29,13,19,17.20
2010,06,29,13,20,17.10
2010,06,29,13,21,17.10
2010,06,29,13,22,17.10
2010,06,29,13,23,17.30
2010,06,29,13,24,17.40
2010,06,29,13,25,17.50
2010,06,29,13,26,17.60
2010,06,29,13,27,17.70
2010,06,29,13,28,17.70
2010,06,29,13,29,17.90
2010,06,29,13,30,17.90
2010,06,29,13,31,17.90
2010,06,29,13,32,17.80
2010,06,29,13,33,17.80
2010,06,29,13,34,17.80
2010,06,29,13,35,17.80
2010,06,29,13,36,17.80
2010,06,29,13,37,17.70
2010,06,29,13,38,17.60
2010,06,29,13,39,17.60
2010,06,29,13,40,17.70
2010,06,29,13,41,17.80
2010,06,29,13,42,18.00
2010,06,29,13,43,18.10
2010,06,29,13,44,18.20
2010,06,29,13,45,18.20
2010,06,29,13,46,18.30
2010,06,29,13,47,18.20
2010,06,29,13,48,18.10
2010,06,29,13,49,18.00
2010,06,29,13,50,17.80
2010,06,29,13,51,17.80
2010,06,29,13,52,17.70
2010,06,29,13,53,17.50
2010,06,29,13,54,17.40
2010,06,29,13,55,17.40
2010,06,29,13,56,17.40
2010,06,29,13,57,17.40
2010,06,29,13,58,17.50
2010,06,29,13,59,17.50
2010,06,29,14,00,17.50
2010,06,29,14,01,17.60
2010,06,29,14,02,17.70
2010,06,29,14,03,17.80
2010,06,29,14,04,18.00
2010,06,29,14,05,18.20
2010,06,29,14,06,18.30
2010,06,29,14,07,18.30
2010,06,29,14,08,18.40
2010,06,29,14,09,18.30
2010,06,29,14,10,18.30
2010,06,29,14,11,18.30
2010,06,29,14,12,18.30
2010,06,29,14,13,18.20
2010,06,29,14,14,18.10
2010,06,29,14,15,18.00
2010,06,29,14,16,17.80
2010,06,29,14,17,17.70
2010,06,29,14,18,17.70
2010,06,29,14,19,17.60
2010,06,29,14,20,17.60
2010,06,29,14,21,17.70
2010,06,29,14,22,17.70
2010,06,29,14,23,17.80
2010,06,29,14,24,17.80
2010,06,29,14,25,17.80
2010,06,29,14,26,17.90
2010,06,29,14,27,18.10
2010,06,29,14,28,18.20
2010,06,29,14,29,18.20
2010,06,29,14,30,18.20
2010,06,29,14,31,18.30
2010,06,29,14,32,18.40
2010,06,29,14,33,18.30
2010,06,29,14,34,18.10
2010,06,29,14,35,17.90
2010,06,29,14,36,17.60
2010,06,29,14,37,17.40
2010,06,29,14,38,17.20
2010,06,29,14,39,17.00
2010,06,29,14,40,16.90
2010,06,29,14,41,16.80
2010,06,29,14,42,16.80
2010,06,29,14,43,16.80
2010,06,29,14,44,16.90
2010,06,29,14,45,17.00
2010,06,29,14,46,17.10
2010,06,29,14,47,17.10
2010,06,29,14,48,17.00
2010,06,29,14,49,17.00
2010,06,29,14,50,17.00
2010,06,29,14,51,17.10
2010,06,29,14,52,17.20
2010,06,29,14,53,17.30
2010,06,29,14,54,17.30
2010,06,29,14,55,17.40
2010,06,29,14,56,17.30
2010,06,29,14,57,17.30
2010,06,29,14,58,17.20
2010,06,29,14,59,17.10
2010,06,29,15,00,17.00
2010,06,29,15,01,16.90
2010,06,29,15,02,16.70
2010,06,29,15,03,16.60
2010,06,29,15,04,16.50
2010,06,29,15,05,16.40
2010,06,29,15,06,16.40
2010,06,29,15,07,16.40
2010,06,29,15,08,16.40
2010,06,29,15,09,16.40
2010,06,29,15,10,16.40
2010,06,29,15,11,16.40
2010,06,29,15,12,16.40
2010,06,29,15,13,16.40
2010,06,29,15,14,16.40
2010,06,29,15,15,16.40
2010,06,29,15,16,16.50
2010,06,29,15,17,16.40
2010,06,29,15,18,16.40
2010,06,29,15,19,16.40
2010,06,29,15,20,16.50
2010,06,29,15,21,16.50
2010,06,29,15,22,16.40
2010,06,29,15,23,16.50
2010,06,29,15,24,16.50
2010,06,29,15,25,16.60
2010,06,29,15,26,16.60
2010,06,29,15,27,16.60
2010,06,29,15,28,16.60
2010,06,29,15,29,16.60
2010,06,29,15,30,16.60
2010,06,29,15,31,16.50
2010,06,29,15,32,16.50
2010,06,29,15,33,16.60
2010,06,29,15,34,16.50
2010,06,29,15,35,16.50
2010,06,29,15,36,16.60
2010,06,29,15,37,16.60
2010,06,29,15,38,16.70
2010,06,29,15,39,16.80
2010,06,29,15,40,16.80
2010,06,29,15,41,16.90
2010,06,29,15,42,16.90
2010,06,29,15,43,16.90
2010,06,29,15,44,16.90
2010,06,29,15,45,16.80
2010,06,29,15,46,16.80
2010,06,29,15,47,16.80
2010,06,29,15,48,16.90
2010,06,29,15,49,17.00
2010,06,29,15,50,17.00
2010,06,29,15,51,17.10
2010,06,29,15,52,17.20
2010,06,29,15,53,17.20
2010,06,29,15,54,17.20
2010,06,29,15,55,17.20
2010,06,29,15,56,17.20
2010,06,29,15,57,17.20
2010,06,29,15,58,17.20
2010,06,29,15,59,17.20
2010,06,29,16,00,17.10
2010,06,29,16,01,17.10
2010,06,29,16,02,17.10
2010,06,29,16,03,17.00
2010,06,29,16,04,17.00
2010,06,29,16,05,17.00
2010,06,29,16,06,17.00
2010,06,29,16,07,17.10
2010,06,29,16,08,17.10
2010,06,29,16,09,17.20
2010,06,29,16,10,17.20
2010,06,29,16,11,17.30
2010,06,29,16,12,17.30
2010,06,29,16,13,17.40
2010,06,29,16,14,17.40
2010,06,29,16,15,17.40
2010,06,29,16,16,17.50
2010,06,29,16,17,17.40
2010,06,29,16,18,17.50
2010,06,29,16,19,17.50
2010,06,29,16,20,17.50
2010,06,29,16,21,17.50
2010,06,29,16,22,17.50
2010,06,29,16,23,17.50
2010,06,29,16,24,17.50
2010,06,29,16,25,17.40
2010,06,29,16,26,17.40
2010,06,29,16,27,17.40
2010,06,29,16,28,17.30
2010,06,29,16,29,17.30
2010,06,29,16,30,17.20
2010,06,29,16,31,17.20
2010,06,29,16,32,17.20
2010,06,29,16,33,17.10
2010,06,29,16,34,17.10
2010,06,29,16,35,17.10
2010,06,29,16,36,17.10
2010,06,29,16,37,17.10
2010,06,29,16,38,17.10
2010,06,29,16,39,17.10
2010,06,29,16,40,17.10
2010,06,29,16,41,17.20
2010,06,29,16,42,17.20
2010,06,29,16,43,17.30
2010,06,29,16,44,17.30
2010,06,29,16,45,17.20
2010,06,29,16,46,17.10
2010,06,29,16,47,17.10
2010,06,29,16,48,17.10
2010,06,29,16,49,17.10
2010,06,29,16,50,17.10
2010,06,29,16,51,17.10
2010,06,29,16,52,17.20
2010,06,29,16,53,17.30
2010,06,29,16,54,17.30
2010,06,29,16,55,17.30
2010,06,29,16,56,17.30
2010,06,29,16,57,17.30
2010,06,29,16,58,17.40
2010,06,29,16,59,17.50
2010,06,29,17,00,17.60
2010,06,29,17,01,17.70
2010,06,29,17,02,17.90
2010,06,29,17,03,18.00
2010,06,29,17,04,18.10
2010,06,29,17,05,18.20
2010,06,29,17,06,18.30
2010,06,29,17,07,18.30
2010,06,29,17,08,18.40
2010,06,29,17,09,18.50
2010,06,29,17,10,18.60
2010,06,29,17,11,18.60
2010,06,29,17,12,18.60
2010,06,29,17,13,18.70
2010,06,29,17,14,18.80
2010,06,29,17,15,18.80
2010,06,29,17,16,18.90
2010,06,29,17,17,18.90
2010,06,29,17,18,18.80
2010,06,29,17,19,18.60
2010,06,29,17,20,18.40
2010,06,29,17,21,18.20
2010,06,29,17,22,17.90
2010,06,29,17,23,17.80
2010,06,29,17,24,17.60
2010,06,29,17,25,17.40
2010,06,29,17,26,17.30
2010,06,29,17,27,17.10
2010,06,29,17,28,17.10
2010,06,29,17,29,17.10